Location: Eaton
(41.3139°N, 82.0207°W)
Time: 12:35:12
(UTC+00:00)

Cosmos 1707 - Pass Details

Date: 17 June 2021
Orbit: 514 x 529 km, 82.5° (Epoch: 26 July)

Event Time Altitude Azimuth Distance (km) Brightness Sun altitude
Exits shadow 01:38:01 - 161° (SSE) 2,309 5.5 -6.1°
Reaches altitude 10° 01:39:28 10° 154° (SSE) 1,758 4.8 -6.3°
Maximum altitude 01:42:54 31° 91° (E) 941 3.6 -6.8°
Drops below altitude 10° 01:46:21 10° 28° (NNE) 1,779 5.6 -7.3°
Sets 01:48:40 0° 19° (NNE) 2,675 6.6 -7.6°
